Guriat, Saudi Arabia

10:22 AM +03 on March 25, 2017 (GMT +0300)
Guriat

Weather History for OEGT - August, 2014

Change the Weather History Date:

Monday, August 11, 2014

  Actual Average Record
Temperature  
Mean Temperature 86 °F -  
Max Temperature 104 °F 96 °F 109 °F (2001)
Min Temperature 69 °F 67 °F 64 °F (2004)
Cooling Degree Days 22    
Growing Degree Days 36 (Base 50)    
Moisture  
Dew Point 48 °F    
Average Humidity 34    
Maximum Humidity 73    
Minimum Humidity 5    
Precipitation  
Precipitation 0.00 in - - ()
Sea Level Pressure  
Sea Level Pressure 29.78 in    
Wind  
Wind Speed 9 mph ()    
Max Wind Speed 16 mph    
Max Gust Speed -    
Visibility 6.0 miles    
Events      
Averages and records for this station are not official NWS values.
T = Trace of Precipitation, MM = Missing Value Source: Averaged Metar Reports

Daily Weather History Graph

Daily Weather History Graph

Search for Another Location

Airport or City:

Trip Planner

Search our weather history database for the weather conditions in past years. The results will help you decide how hot, cold, wet, or windy it might be!

Date:

Astronomy

Aug. 11, 2014 Rise Set
Actual Time 5:53 AM +03 7:18 PM +03
Civil Twilight 5:27 AM +03 7:44 PM +03
Nautical Twilight 4:56 AM +03 8:14 PM +03
Astronomical Twilight 4:24 AM +03 8:46 PM +03
Moon 7:40 PM +03 (8/11) 6:27 AM +03 (8/11)
Length of Visible Light 14h 16m
Length of Day
13h 24m
Waxing Gibbous, 99% of the Moon is Illuminated
Aug 11
Waxing Gibbous
Aug 17
Last Quarter
Aug 25
New
Sep 2
First Quarter
Sep 9
Full

Hourly Weather History & Observations

Time (+03) Temp. Heat Index Dew Point Humidity Pressure Visibility Wind Dir Wind Speed Gust Speed Precip Events Conditions
12:00 AM 81 °F - 57 °F 34% 29.72 in 6 mi WNW 6.9 mph - -  
12:00 AM 80.6 °F 80.8 °F 57.2 °F 45% 29.80 in - WNW 6.9 mph - N/A   Clear
1:00 AM 77.0 °F - 59.0 °F 54% 29.80 in - WNW 9.2 mph - N/A   Clear
2:00 AM 75.2 °F - 62.6 °F 65% 29.80 in - West 11.5 mph - N/A   Clear
3:00 AM 74 °F - 63 °F 59% 29.74 in 6 mi West 11.5 mph - -  
3:00 AM 73.4 °F - 62.6 °F 69% 29.83 in - West 11.5 mph - N/A   Clear
4:00 AM 71.6 °F - 60.8 °F 69% 29.83 in - West 11.5 mph - N/A   Clear
5:00 AM 69.8 °F - 60.8 °F 73% 29.80 in - West 6.9 mph - N/A   Clear
6:00 AM 70 °F - 61 °F 65% 29.72 in 6 mi West 9.2 mph - -  
6:00 AM 69.8 °F - 60.8 °F 73% 29.80 in - West 9.2 mph - N/A   Clear
7:00 AM 71.6 °F - 59.0 °F 64% 29.83 in - West 16.1 mph - N/A   Clear
8:00 AM 75.2 °F - 57.2 °F 53% 29.86 in - West 11.5 mph - N/A   Clear
9:00 AM 79 °F - 55 °F 34% 29.78 in 6 mi West 13.8 mph - -  
9:00 AM 78.8 °F - 55.4 °F 44% 29.86 in - West 13.8 mph - N/A   Clear
10:00 AM 82.4 °F 81.4 °F 53.6 °F 37% 29.86 in - West 9.2 mph - N/A   Clear
11:00 AM 87.8 °F - 50.0 °F 27% 29.86 in - WNW 9.2 mph - N/A   Clear
12:00 PM 90 °F - 48 °F 15% 29.75 in 6 mi WNW 6.9 mph - -  
12:00 PM 89.6 °F - 48.2 °F 24% 29.86 in - WNW 6.9 mph - N/A   Clear
1:00 PM 95.0 °F - 39.2 °F 14% 29.83 in - West 6.9 mph - N/A   Clear
2:00 PM 96.8 °F - 35.6 °F 12% 29.80 in - West 9.2 mph - N/A   Clear
3:00 PM 99 °F - 34 °F 5% 29.68 in 6 mi NW 11.5 mph - -  
3:00 PM 98.6 °F - 33.8 °F 10% 29.77 in - NW 11.5 mph - N/A   Clear
4:00 PM 100.4 °F - 35.6 °F 11% 29.77 in - NW 9.2 mph - N/A   Clear
5:00 PM 102.2 °F - 37.4 °F 11% 29.74 in - West 6.9 mph - N/A   Clear
6:00 PM 102 °F - 36 °F 5% 29.65 in 6 mi NW 9.2 mph - -  
6:00 PM 102.2 °F - 35.6 °F 10% 29.74 in - NW 9.2 mph - N/A   Clear
7:00 PM 98.6 °F - 39.2 °F 13% 29.74 in - NW 11.5 mph - N/A   Clear
8:00 PM 95.0 °F - 37.4 °F 13% 29.77 in - West 11.5 mph - N/A   Clear
9:00 PM 88 °F - 36 °F 8% 29.68 in 6 mi WNW 9.2 mph - -  
9:00 PM 87.8 °F - 35.6 °F 16% 29.77 in - WNW 9.2 mph - N/A   Clear
10:00 PM 84.2 °F - 37.4 °F 19% 29.80 in - WNW 9.2 mph - N/A   Clear
11:00 PM 82.4 °F - 46.4 °F 28% 29.80 in - WNW 9.2 mph - N/A   Clear